Location: Lecco
(45.8566°N, 9.3977°E)
Time: 04:34:47
(UTC+02:00)

Transit 4A - Pass Details

Date: 18 August 2020
Orbit: 863 x 982 km, 66.8° (Epoch: 23 September)

Event Time Altitude Azimuth Distance (km) Brightness Sun altitude
Rises 14:05:51 0° 322° (NW) 3,622 10.8 55.9°
Reaches altitude 10° 14:10:27 10° 353° (N) 2,703 10.1 55.7°
Maximum altitude 14:12:44 12° 14° (NNE) 2,571 10.0 55.5°
Drops below altitude 10° 14:15:03 10° 36° (NE) 2,723 10.1 55.4°
Sets 14:19:43 0° 66° (ENE) 3,683 10.8 55.1°
